#timestamp,LO_Frequency,Hit,StdDev 
1502406015.8,286047000.3,P,0.1
1502406035.7,286047001.1,P,0.3
1502406055.5,286047000.3,N,0.3
1502406075.4,286047000.2,N,0.3
1502406095.2,286047002.8,Y,0.0
1502406115.0,286047002.0,P,0.8
1502406115.9,286047002.0,N,0.7
1502406135.8,286047000.0,N,0.9
1502406155.6,286047000.0,N,0.9
1502406175.5,286047001.0,N,0.8
1502406195.3,286046998.2,N,1.2
1502406215.1,286047000.8,N,1.2
1502406235.9,286047000.9,N,1.1
1502406255.7,286047001.0,N,1.0
1502406275.5,286046999.8,N,1.0
1502406295.4,286047002.3,N,1.1
1502406315.2,286047002.0,N,1.1
1502406335.1,286046999.7,N,1.1
1502406336.0,286046999.7,N,1.1
1502406355.8,286047001.8,N,1.1
1502406375.6,286047000.4,N,1.1
1502406395.5,286047002.4,N,1.1
1502406415.3,286047002.6,N,1.1
1502406435.2,286047004.3,Y,0.0
1502406455.0,286046999.8,P,0.5
1502406455.9,286046999.8,N,0.5
1502406475.7,286047002.6,P,1.1
1502406495.6,286047002.3,N,1.2
1502406515.4,286047002.4,N,1.2
1502406535.3,286047002.0,N,1.1
1502406555.1,286047000.3,N,1.1
1502406575.8,286047000.0,N,1.1
1502406595.7,286047002.7,N,1.2
1502406615.5,286047000.7,N,1.1
1502406635.4,286046999.8,N,1.1
1502406655.2,286047002.3,N,1.1
1502406675.0,286047002.6,N,1.2
1502406675.9,286047002.6,N,1.2
1502406695.8,286047002.3,N,1.2
1502406715.6,286047001.9,N,1.1
1502406735.5,286047002.3,N,1.1
1502406755.3,286047002.5,N,1.1
1502406775.1,286047002.0,N,1.1
1502406795.9,286047002.5,N,1.1
1502406815.7,286047000.2,N,1.1
1502406835.6,286047000.3,N,1.1
1502406855.4,286047000.7,N,1.1
1502406875.2,286047000.4,N,1.1
1502406895.1,286046999.7,N,1.1
1502406896.0,286046999.7,N,1.1
1502406915.8,286047002.7,N,1.1
1502406935.7,286047002.1,N,1.1
1502406955.5,286047002.8,N,1.1
1502406975.3,286047001.5,N,1.1
1502406995.2,286047001.5,N,1.1
1502407015.0,286047002.2,N,1.1
1502407015.9,286047002.2,N,1.0
1502407035.8,286047002.0,N,1.0
1502407055.6,286047002.6,N,1.0
1502407075.5,286047001.8,N,1.0
1502407095.3,286047002.3,N,1.0
1502407115.1,286047002.7,N,1.0
1502407135.9,286047000.1,N,1.0
1502407155.7,286047000.2,N,1.0
1502407175.5,286047001.9,N,1.0
1502407195.4,286047002.0,N,1.0
1502407215.2,286046999.7,N,1.0
1502407235.1,286047002.4,N,1.0
1502407236.0,286047002.4,N,1.0
1502407255.8,286047001.3,N,1.0
1502407275.7,286047003.9,Y,0.0
1502407295.5,286047002.3,P,0.4
1502407315.3,286046999.8,N,1.0
1502407335.2,286047000.1,N,1.0
1502407355.0,286046999.7,N,1.0
1502407355.9,286046999.7,N,1.0
1502407375.8,286047000.5,N,0.9
1502407395.6,286047000.7,N,0.9
1502407415.4,286047002.7,Y,0.0
1502407435.3,286046999.8,P,0.4
1502407455.1,286047000.1,N,0.3
1502407475.9,286047001.2,P,0.5
1502407495.7,286046998.5,N,0.9
1502407515.5,286046998.5,N,1.0
1502407535.4,286046998.5,N,1.0
1502407555.2,286047000.6,N,1.0
1502407575.1,286047000.7,N,1.0
1502407576.0,286047000.7,N,1.0
1502407595.8,286047000.7,N,1.0
1502407615.6,286046998.2,N,1.1
1502407635.5,286046998.1,N,1.1
1502407655.3,286047000.8,N,1.1
1502407675.2,286047000.6,N,1.1
1502407695.9,286047001.2,N,1.1
1502407715.7,286047001.1,N,1.1
1502407735.6,286047001.9,N,1.2
1502407755.4,286046999.7,N,1.1
1502407775.3,286047000.6,N,1.1
1502407795.1,286047002.3,N,1.2
1502407796.0,286047002.3,N,1.2
1502407815.8,286047002.6,N,1.3
1502407835.7,286047000.3,N,1.3
1502407855.5,286047000.4,N,1.2
1502407875.3,286046999.7,N,1.2
1502407895.2,286047002.2,N,1.3
1502407915.0,286047002.1,N,1.3
1502407915.9,286047002.1,N,1.3
1502407935.8,286046999.9,N,1.3
1502407955.6,286047000.7,N,1.3
1502407975.4,286047001.2,N,1.3
1502407995.3,286047000.1,N,1.3
1502408015.1,286047002.3,N,1.3
1502408035.9,286046998.6,N,1.3
1502408055.7,286046998.6,N,1.3
1502408075.5,286046998.6,N,1.3
1502408095.4,286047000.6,N,1.3
1502408115.2,286047001.4,N,1.3
1502408135.1,286047002.4,N,1.3
1502408136.0,286047002.4,N,1.4
1502408155.8,286047002.1,N,1.3
1502408175.6,286047001.5,N,1.2
1502408195.5,286046999.8,N,1.2
1502408215.3,286047001.6,N,1.2
1502408235.2,286047001.9,N,1.2
1502408255.9,286047003.1,N,1.3
1502408275.7,286047004.0,Y,0.0
1502408295.6,286047000.5,P,0.3
1502408315.4,286047000.3,N,0.3
1502408335.3,286047002.4,P,0.8
1502408355.1,286047000.6,N,0.8
1502408356.0,286047000.6,N,0.7
1502408375.8,286047001.0,N,0.7
1502408395.7,286047001.2,N,0.6
1502408415.5,286047001.1,N,0.6
1502408435.4,286047001.0,N,0.6
1502408455.2,286046998.6,N,0.9
1502408475.0,286046999.7,N,0.9
1502408475.9,286046999.7,N,0.9
1502408495.8,286047001.7,N,0.9
1502408515.6,286047002.6,N,1.0
1502408535.5,286047000.5,N,1.0
1502408555.3,286047000.4,N,0.9
1502408575.1,286047000.4,N,0.9
1502408595.9,286047000.7,N,0.9
1502408615.7,286046998.5,N,1.0
1502408635.6,286046998.9,N,1.0
1502408655.4,286046998.9,N,1.1
1502408675.2,286046998.2,N,1.1
1502408695.1,286047000.9,N,1.1
1502408696.0,286047000.9,N,1.1
1502408715.8,286047000.7,N,1.1
1502408735.7,286046998.9,N,1.1
1502408755.5,286047002.6,N,1.2
1502408775.3,286047002.5,N,1.2
1502408795.2,286047002.1,N,1.2
1502408815.0,286047001.3,N,1.2
1502408815.9,286047001.3,N,1.2
1502408835.7,286047001.7,N,1.2
1502408855.6,286047002.5,N,1.2
1502408875.4,286047002.6,N,1.3
1502408895.3,286047002.2,N,1.3
1502408915.1,286047002.6,N,1.4
1502408935.8,286047001.6,N,1.4
1502408955.7,286047004.4,Y,0.0
1502408975.5,286047000.3,P,0.3
1502408995.4,286046999.7,N,0.5
1502409015.2,286047002.8,P,1.2
1502409035.0,286046999.7,N,1.1
1502409035.9,286046999.7,N,1.1
1502409055.8,286047002.2,N,1.2
1502409075.6,286047001.3,N,1.1
1502409095.5,286047001.9,N,1.1
1502409115.3,286047004.3,Y,0.0
1502409135.1,286047002.2,P,0.6
1502409155.9,286047000.1,N,0.9
1502409175.7,286047001.0,N,0.7
1502409195.6,286047000.9,N,0.7
1502409215.4,286047001.1,N,0.6
1502409235.2,286046998.1,Y,0.0
1502409255.1,286046999.5,P,0.8
1502409256.0,286046999.5,N,0.7
1502409275.8,286046999.0,N,0.8
1502409295.7,286046996.9,Y,0.0
1502409315.5,286046996.5,P,1.6
1502409335.3,286046997.3,N,1.4
1502409355.2,286046995.0,P,1.7
1502409375.0,286046995.1,N,1.7
1502409375.9,286046995.1,N,1.7
1502409395.7,286046995.2,N,1.6
1502409415.6,286046995.3,N,1.6
1502409435.4,286046995.3,Y,0.0
1502409455.3,286047000.0,P,1.9
1502409475.1,286047000.1,N,1.8
1502409495.8,286047000.9,N,1.8
1502409515.7,286047000.8,N,1.8
1502409535.5,286047001.2,N,1.7
1502409555.4,286046999.3,N,1.6
1502409575.2,286046999.2,N,1.5
1502409595.0,286046999.5,N,1.4
1502409595.9,286046999.5,N,1.3
